Wetterdaten: aktuell Samstag, 09.05.2026 15:21
Datum Zeit Temp. A. Feuchte A. Luftdruck Regen Wind Richtung Richtung Taupunkt Windchill
09.05.2026 15:21 22,5 °C 22 % 1008,9 hPa 0,0 l/m² 0,6 km/h (0 Bft) O 80 ° -0,3 °C 22,5 °C
09.05.2026 15:19 22,5 °C 22 % 1008,9 hPa 0,0 l/m² 5,0 km/h (1 Bft) O-NO±45° 75 ° -0,3 °C 22,5 °C
09.05.2026 15:17 22,4 °C 20 % 1008,9 hPa 0,0 l/m² 5,0 km/h (1 Bft) O-NO±45° 75 ° -1,7 °C 22,4 °C
09.05.2026 15:15 22,5 °C 20 % 1008,9 hPa 0,0 l/m² 6,1 km/h (2 Bft) N-NO±67.5° 15 ° -1,6 °C 22,5 °C
09.05.2026 15:13 22,5 °C 20 % 1008,9 hPa 0,0 l/m² 0,3 km/h (0 Bft) N±67.5° 5 ° -1,6 °C 22,5 °C
09.05.2026 15:11 22,5 °C 20 % 1008,9 hPa 0,0 l/m² 0,3 km/h (0 Bft) N±67.5° 5 ° -1,6 °C 22,5 °C
09.05.2026 15:09 22,2 °C 20 % 1008,9 hPa 0,0 l/m² 0,4 km/h (0 Bft) N 350 ° -1,8 °C 22,2 °C
09.05.2026 15:07 22,2 °C 20 % 1008,9 hPa 0,0 l/m² 4,6 km/h (1 Bft) N 350 ° -1,8 °C 22,2 °C
09.05.2026 15:05 22,2 °C 20 % 1008,9 hPa 0,0 l/m² 0,6 km/h (0 Bft) N 360 ° -1,8 °C 22,2 °C
09.05.2026 15:03 22,0 °C 20 % 1008,9 hPa 0,0 l/m² 0,6 km/h (0 Bft) N 360 ° -2,0 °C 22,0 °C
09.05.2026 15:01 22,0 °C 20 % 1008,9 hPa 0,0 l/m² 7,4 km/h (2 Bft) N-NW±45° 340 ° -2,0 °C 21,7 °C
09.05.2026 14:59 22,0 °C 22 % 1008,9 hPa 0,0 l/m² 0,9 km/h (0 Bft) NW 320 ° -0,7 °C 22,0 °C
09.05.2026 14:57 21,8 °C 22 % 1009,0 hPa 0,0 l/m² 0,9 km/h (0 Bft) NW 320 ° -0,9 °C 21,8 °C
09.05.2026 14:55 21,8 °C 22 % 1009,0 hPa 0,0 l/m² 4,6 km/h (1 Bft) N-NW±45° 330 ° -0,9 °C 21,8 °C
09.05.2026 14:53 21,7 °C 20 % 1009,0 hPa 0,0 l/m² 4,6 km/h (1 Bft) NW 325 ° -2,2 °C 21,7 °C
09.05.2026 14:51 21,9 °C 20 % 1009,0 hPa 0,0 l/m² 4,5 km/h (1 Bft) NW 325 ° -2,1 °C 21,9 °C
09.05.2026 14:48 21,9 °C 20 % 1010,0 hPa 0,0 l/m² 4,5 km/h (1 Bft) NW 325 ° -2,1 °C 21,9 °C
09.05.2026 14:46 21,9 °C 20 % 1010,0 hPa 0,0 l/m² 7,2 km/h (2 Bft) N±45° 355 ° -2,1 °C 21,6 °C
09.05.2026 14:45 21,8 °C 20 % 1010,0 hPa 0,0 l/m² 7,2 km/h (2 Bft) N±45° 355 ° -2,1 °C 21,5 °C
09.05.2026 14:43 21,8 °C 20 % 1010,0 hPa 0,0 l/m² 7,8 km/h (2 Bft) N-NW±22.5° 330 ° -2,1 °C 21,3 °C
09.05.2026 14:41 22,1 °C 20 % 1010,0 hPa 0,0 l/m² 7,8 km/h (2 Bft) N-NW±22.5° 330 ° -1,9 °C 21,6 °C
09.05.2026 14:39 21,7 °C 20 % 1010,0 hPa 0,0 l/m² 8,9 km/h (2 Bft) N±22.5° 350 ° -2,2 °C 20,8 °C
09.05.2026 14:37 21,7 °C 20 % 1010,0 hPa 0,0 l/m² 5,9 km/h (2 Bft) NO±67.5° 55 ° -2,2 °C 21,7 °C
09.05.2026 14:35 22,2 °C 20 % 1010,0 hPa 0,0 l/m² 5,9 km/h (2 Bft) NO±67.5° 55 ° -1,8 °C 22,2 °C
09.05.2026 14:33 22,1 °C 23 % 1010,0 hPa 0,0 l/m² 6,7 km/h (2 Bft) O±45° 95 ° 0,0 °C 22,0 °C
09.05.2026 14:31 22,1 °C 23 % 1010,0 hPa 0,0 l/m² 0,5 km/h (0 Bft) O-SO±45° 105 ° 0,0 °C 22,1 °C
09.05.2026 14:29 21,9 °C 23 % 1010,0 hPa 0,0 l/m² 1,9 km/h (1 Bft) SO 125 ° -0,2 °C 21,9 °C
09.05.2026 14:27 21,7 °C 25 % 1010,0 hPa 0,0 l/m² 1,9 km/h (1 Bft) SO 125 ° 0,8 °C 21,7 °C
09.05.2026 14:25 21,6 °C 24 % 1010,0 hPa 0,0 l/m² 5,2 km/h (1 Bft) NO±67.5° 50 ° 0,2 °C 21,6 °C
09.05.2026 14:23 21,6 °C 24 % 1010,0 hPa 0,0 l/m² 0,6 km/h (0 Bft) N 360 ° 0,2 °C 21,6 °C
09.05.2026 14:21 21,5 °C 23 % 1010,0 hPa 0,0 l/m² 1,9 km/h (1 Bft) N 360 ° -0,5 °C 21,5 °C
09.05.2026 14:19 21,5 °C 22 % 1010,0 hPa 0,0 l/m² 1,9 km/h (1 Bft) N 360 ° -1,1 °C 21,5 °C
09.05.2026 14:17 21,5 °C 22 % 1010,0 hPa 0,0 l/m² 3,7 km/h (1 Bft) O±67.5° 95 ° -1,1 °C 21,5 °C
09.05.2026 14:15 21,6 °C 23 % 1010,0 hPa 0,0 l/m² 6,7 km/h (2 Bft) O-NO±45° 60 ° -0,4 °C 21,5 °C
09.05.2026 14:13 21,4 °C 24 % 1010,0 hPa 0,0 l/m² 6,7 km/h (2 Bft) O-NO±45° 60 ° 0,0 °C 21,3 °C
09.05.2026 14:11 21,4 °C 24 % 1010,0 hPa 0,0 l/m² 10,8 km/h (2 Bft) N-NW±22.5° 340 ° 0,0 °C 20,0 °C
09.05.2026 14:08 21,6 °C 25 % 1010,0 hPa 0,0 l/m² 7,5 km/h (2 Bft) N±22.5° 360 ° 0,7 °C 21,2 °C
09.05.2026 14:06 21,4 °C 23 % 1010,0 hPa 0,0 l/m² 5,1 km/h (1 Bft) O 100 ° -0,6 °C 21,4 °C
09.05.2026 14:04 21,4 °C 23 % 1010,0 hPa 0,0 l/m² 5,1 km/h (1 Bft) O 100 ° -0,6 °C 21,4 °C
09.05.2026 14:03 21,3 °C 25 % 1010,0 hPa 0,0 l/m² 7,2 km/h (2 Bft) N-NO±67.5° 30 ° 0,5 °C 21,0 °C
09.05.2026 14:01 21,1 °C 23 % 1010,0 hPa 0,0 l/m² 8,7 km/h (2 Bft) N±22.5° 5 ° -0,8 °C 20,3 °C
_ Min-Zeit 06:38 14:35 15:11 - 00:05 - - 14:37 06:38
Minimum _ 8,4 °C 20 % 1008,9 hPa - 0,0 km/h (0 Bft) - - -2,2 °C 8,4 °C
_ Max-Zeit 15:11 06:51 06:38 00:01 13:24 - - 08:27 15:11
Maximum _ 22,5 °C 81 % 1012,6 hPa 0,0 l/m² 11,1 km/h
O (2 Bft)
- - 6,1 °C 22,5 °C
Durchschnitt _ 13,6 °C 58 % 1011,6 hPa #0,0 l/m² 1,7 km/h (1 Bft) N - 4,3 °C 13,5 °C